Weather History for Santander Airport, Spain

Change the Weather History Date:

Wednesday, November 21, 2012

  Actual Average Record
Temperature  
Mean Temperature 52 °F -  
Max Temperature 57 °F 54 °F 78 °F (2014)
Min Temperature 44 °F 44 °F 37 °F (1998)
Degree Days  
Heating Degree Days 14    
Growing Degree Days 2 (Base 50)    
Moisture  
Dew Point 45 °F    
Average Humidity 75    
Maximum Humidity 93    
Minimum Humidity 59    
Precipitation  
Precipitation 0.00 in - - ()
Sea Level Pressure  
Sea Level Pressure 30.16 in    
Wind  
Wind Speed 7 mph ()    
Max Wind Speed 24 mph    
Max Gust Speed 31 mph    
Visibility 6.1 miles    
Events Rain    
Averages and records for this station are not official NWS values.
T = Trace of Precipitation, MM = Missing Value Source: Averaged Metar Reports

Daily Weather History Graph

Daily Weather History Graph

Search for Another Location

Airport:

Trip Planner

Search our weather history database for the weather conditions in past years. The results will help you decide how hot, cold, wet, or windy it might be!

Date:

Astronomy

Nov. 21, 2012 Rise Set
Actual Time 8:16 AM CET 5:45 PM CET
Civil Twilight 7:45 AM CET 6:16 PM CET
Nautical Twilight 7:10 AM CET 6:51 PM CET
Astronomical Twilight 6:36 AM CET 7:25 PM CET
Moon 2:05 PM CET (11/21) 1:09 AM CET (11/21)
Length of Visible Light 10h 31m
Length of Day
9h 28m
First Quarter, 59% of the Moon is Illuminated
Nov 21
First Quarter
Nov 28
Full
Dec 6
Last Quarter
Dec 13
New
Dec 20
First Quarter

Hourly Weather History & Observations

Time (CET) Temp. Dew Point Humidity Pressure Visibility Wind Dir Wind Speed Gust Speed Precip Events Conditions
5:30 AM 51.8 °F 48.2 °F 88% 29.98 in 6.2 mi SSW 6.9 mph - N/A Rain Light Rain
6:00 AM 51.8 °F 48.2 °F 88% 29.98 in 4.3 mi SSW 6.9 mph - N/A Rain Light Rain
6:30 AM 51.8 °F 48.2 °F 88% 30.01 in 6.2 mi SSW 6.9 mph - N/A   Mostly Cloudy
7:00 AM 51.8 °F 48.2 °F 88% 30.04 in 6.2 mi SW 5.8 mph - N/A   Scattered Clouds
7:30 AM 51.8 °F 46.4 °F 82% 30.04 in 6.2 mi SW 6.9 mph - N/A   Scattered Clouds
8:00 AM 53.6 °F 42.8 °F 67% 30.06 in 6.2 mi WSW 10.4 mph - N/A   Scattered Clouds
8:30 AM 53.6 °F 42.8 °F 67% 30.06 in 6.2 mi West 8.1 mph - N/A   Scattered Clouds
9:00 AM 51.8 °F 42.8 °F 71% 30.09 in 6.2 mi West 8.1 mph - N/A   Scattered Clouds
9:30 AM 53.6 °F 46.4 °F 77% 30.12 in 6.2 mi WNW 13.8 mph - N/A   Scattered Clouds
10:00 AM 53.6 °F 46.4 °F 77% 30.12 in 6.2 mi South 4.6 mph - N/A   Scattered Clouds
10:30 AM 55.4 °F 48.2 °F 77% 30.15 in 6.2 mi West 3.5 mph - N/A   Scattered Clouds
11:00 AM 55.4 °F 48.2 °F 77% 30.15 in 6.2 mi West 8.1 mph - N/A   Scattered Clouds
11:21 AM 55.4 °F 48.2 °F 77% 30.18 in 6.2 mi WNW 18.4 mph 31.1 mph N/A Rain Light Rain Showers
11:30 AM 53.6 °F 46.4 °F 77% 30.18 in 6.2 mi WNW 18.4 mph - N/A   Mostly Cloudy
12:00 PM 55.4 °F 46.4 °F 72% 30.18 in 6.2 mi WNW 11.5 mph - N/A   Mostly Cloudy
12:30 PM 53.6 °F 44.6 °F 72% 30.18 in 6.2 mi WNW 24.2 mph - N/A   Mostly Cloudy
1:00 PM 57.2 °F 42.8 °F 59% 30.18 in 6.2 mi WNW 16.1 mph - N/A   Scattered Clouds
1:30 PM 57.2 °F 44.6 °F 63% 30.18 in 6.2 mi WNW 17.3 mph - N/A   Scattered Clouds
2:00 PM 57.2 °F 42.8 °F 59% 30.18 in 6.2 mi WNW 15.0 mph - N/A   Partly Cloudy
2:30 PM 57.2 °F 44.6 °F 63% 30.18 in 6.2 mi WNW 12.7 mph - N/A   Partly Cloudy
3:00 PM 57.2 °F 42.8 °F 59% 30.18 in 6.2 mi WNW 13.8 mph - N/A   Partly Cloudy
3:30 PM 55.4 °F 44.6 °F 67% 30.18 in 6.2 mi WNW 11.5 mph - N/A   Partly Cloudy
4:00 PM 55.4 °F 42.8 °F 63% 30.18 in 6.2 mi WNW 9.2 mph - N/A   Partly Cloudy
4:30 PM 55.4 °F 42.8 °F 63% 30.21 in 6.2 mi WNW 9.2 mph - N/A   Partly Cloudy
5:00 PM 53.6 °F 42.8 °F 67% 30.21 in 6.2 mi WNW 6.9 mph - N/A   Partly Cloudy
5:30 PM 51.8 °F 41.0 °F 67% 30.21 in 6.2 mi West 3.5 mph - N/A   Partly Cloudy
6:00 PM 51.8 °F 41.0 °F 67% 30.21 in 6.2 mi Variable 2.3 mph - N/A   Partly Cloudy
6:30 PM 51.8 °F 42.8 °F 71% 30.21 in 6.2 mi Variable 2.3 mph - N/A   Partly Cloudy
7:00 PM 50.0 °F 42.8 °F 76% 30.21 in 6.2 mi Calm Calm - N/A   Scattered Clouds
7:30 PM 50.0 °F 42.8 °F 76% 30.24 in 6.2 mi SSW 3.5 mph - N/A   Mostly Cloudy
8:00 PM 50.0 °F 42.8 °F 76% 30.24 in 6.2 mi Calm Calm - N/A   Scattered Clouds
8:30 PM 48.2 °F 42.8 °F 82% 30.24 in 6.2 mi Calm Calm - N/A   Partly Cloudy
9:00 PM 48.2 °F 44.6 °F 87% 30.24 in 6.2 mi Calm Calm - N/A   Partly Cloudy
9:30 PM 46.4 °F 44.6 °F 93% 30.24 in 6.2 mi Calm Calm - N/A   Partly Cloudy
10:00 PM 46.4 °F 42.8 °F 87% 30.24 in 6.2 mi Calm Calm - N/A   Partly Cloudy
10:30 PM 46.4 °F 42.8 °F 87% 30.24 in 6.2 mi South 1.2 mph - N/A   Partly Cloudy
11:00 PM 44.6 °F 42.8 °F 93% 30.24 in 6.2 mi Calm Calm - N/A   Partly Cloudy